{"data":{"norad_id":56956,"intl_designator":"2023-084AA","name":"BLACKJACK ACES-1","alt_names":[],"object_type":"PAYLOAD","status":"ACTIVE","operator":null,"country":"US","launch_date":"2023-06-12","launch_site_code":"AFWTR","launch_vehicle":null,"mission":null,"orbit_class":"UNKNOWN","rcs_meters":null,"size_class":null,"mass_kg":null,"dimensions":null,"purposes":[],"wikipedia_slug":null,"has_3d_model":false,"image_url":null,"decayed_at":null,"tle_current":{"epoch":"2026-09-21T21:12:10.216512Z","epoch_age_seconds":80608,"freshness":"FRESH","line1":"1 56956U 23084AA  26264.88345158  .00004371  00000+0  21364-3 0  9993","line2":"2 56956  97.6329  40.7679 0001297 111.7771 248.3601 15.18775498131572","mean_motion":15.18775498,"eccentricity":0.0001297,"inclination_deg":97.6329,"raan_deg":40.7679,"arg_perigee_deg":111.7771,"mean_anomaly_deg":248.3601,"bstar":0.00021364,"rev_number":13157,"period_min":94.813223013952,"perigee_km":508.64689048523,"apogee_km":510.43355395668,"semimajor_km":6887.677222221,"source":"CELESTRAK","updated_at":"2026-09-22T09:00:25.994379Z"}}}